[[{"header":{"parameterUnit":"m.s-1","parameterCategory":2,"la1":30.2991,"la2":30.254,"lo1":-89.0895,"lo2":-89.0444,"dy":0.0017,"dx":0.0017,"nx":28,"ny":28,"refTime":"2025-04-01T09:00:00:Z","depth":"0","parameterNumber":2,"parameterNumberName":"U-component_of_CURRENTS"},"data":[0,0,0,0,0,0,0,0,0,0,0,0,0,0,0,0,0,0,0,0,0,0,0,0,0,0,0,0,0,0,0,0,0,0,0,0,0,0,0,0,0,0,0,0,0,0,0,0,0,0,0,0,0,0,0,0,0,0,-0.1681,-0.1682,0,-0.1776,-0.1777,-0.1778,-0.1751,-0.175,-0.1748,-0.1746,-0.1689,-0.169,-0.169,0,0,0,0,0,0,0,0,0,0,0,0,0,-0.1609,-0.161,-0.1681,-0.1682,-0.1684,-0.1776,-0.1777,-0.1778,-0.1752,-0.1749,-0.1747,-0.1745,-0.1689,-0.169,-0.169,0,0,0,0,0,0,0,0,0,0,0,0,0,-0.1665,-0.161,-0.1681,-0.1681,-0.1682,-0.1775,-0.1777,-0.1779,-0.1752,-0.1749,-0.1747,-0.1744,-0.1689,-0.169,-0.169,-0.1751,0,0,-0.1691,-0.1692,0,0,0,0,0,0,0,0,-0.1662,-0.1668,-0.168,-0.1682,-0.1683,-0.1749,-0.1731,-0.1762,-0.1753,-0.1726,-0.1746,-0.1742,-0.1698,-0.1697,-0.1723,-0.1748,-0.1745,-0.1692,-0.1692,-0.1692,-0.1692,0,0,0,0,0,0,0,-0.1658,-0.1665,-0.1719,-0.1682,-0.1683,-0.1722,-0.1726,-0.1738,-0.1724,-0.1728,-0.1726,-0.1738,-0.1697,-0.1723,-0.1721,-0.1745,-0.1691,-0.1692,-0.1692,-0.1692,-0.1809,-0.1812,0,0,0,0,0,0,-0.1643,-0.166,-0.1716,-0.1721,-0.1665,-0.1725,-0.1729,-0.1731,-0.1727,-0.1725,-0.174,-0.1736,-0.1724,-0.1721,-0.1719,-0.178,-0.1692,-0.1692,-0.1693,-0.1806,-0.181,-0.1813,0,0,0,0,0,0,-0.1641,-0.1647,-0.1712,-0.1694,-0.1704,-0.1728,-0.1731,-0.1734,-0.175,-0.1738,-0.1732,-0.1751,-0.1722,-0.1718,-0.1734,-0.1777,-0.1693,-0.1693,-0.1803,-0.1808,-0.1811,-0.1908,0,0,0,0,0,0,-0.1638,-0.1645,-0.1648,-0.1692,-0.1705,-0.1755,-0.1734,-0.1738,-0.1762,-0.1757,-0.1746,-0.1738,-0.1719,-0.1733,-0.1734,-0.1776,-0.1693,-0.18,-0.1805,-0.181,-0.1901,-0.1915,-0.1927,0,0,0,0,0,-0.1635,-0.1647,-0.1647,-0.1654,-0.1704,-0.1756,-0.1767,-0.1775,-0.1765,-0.1778,-0.1778,-0.1738,-0.1768,-0.1736,-0.1736,-0.178,-0.1797,-0.1804,-0.181,-0.1896,-0.1912,-0.1927,0,0,0,0,0,0,-0.1626,-0.1647,-0.1647,-0.1666,-0.1703,-0.1751,-0.1768,-0.1783,-0.1801,-0.1789,-0.1772,-0.1766,-0.18,-0.1783,-0.1749,-0.1833,-0.1778,-0.1785,-0.1844,-0.1859,-0.1872,-0.1869,-0.1694,0,0,0,0,0,-0.1625,-0.1629,-0.1667,-0.1685,-0.1698,-0.1737,-0.1761,-0.1772,-0.1795,-0.18,-0.1804,-0.1811,-0.1836,-0.1836,-0.185,-0.1893,-0.1863,-0.1924,-0.1937,-0.1948,-0.1948,-0.1933,-0.1943,-0.1834,-0.1834,-0.1834,0,0,-0.1629,-0.1642,-0.1645,-0.1682,-0.1708,-0.1763,-0.1743,-0.178,-0.1837,-0.1792,-0.1856,-0.1853,-0.1858,-0.1909,-0.1923,-0.1892,-0.1973,-0.1956,-0.1965,-0.1959,-0.194,-0.1951,-0.1959,-0.1838,-0.1838,-0.1837,0,0,-0.1649,-0.1646,-0.1661,-0.1698,-0.1738,-0.1775,-0.1785,-0.1838,-0.1861,-0.1927,-0.1916,-0.1937,-0.1977,-0.1993,-0.2006,-0.21,-0.2042,-0.2109,-0.2167,-0.2153,-0.216,-0.2167,-0.2172,-0.2178,-0.2112,-0.2112,-0.2113,0,-0.1657,-0.1682,-0.1679,-0.172,-0.1766,-0.1783,-0.1842,-0.1887,-0.1945,-0.1974,-0.1949,-0.2031,-0.2024,-0.2095,-0.2128,-0.2127,-0.2109,-0.2104,-0.2166,-0.2171,-0.2176,-0.2179,-0.2185,-0.2118,-0.2117,-0.2117,-0.2116,0,-0.1693,-0.173,-0.1746,-0.1803,-0.1852,-0.1902,-0.1964,-0.2013,-0.2044,-0.2083,-0.2148,-0.2152,-0.2187,-0.2206,-0.2195,-0.2248,-0.2223,-0.2182,-0.2118,-0.2192,-0.2192,-0.2196,-0.2126,-0.2124,-0.2122,-0.2121,0,0,-0.1683,-0.1756,-0.1765,-0.1819,-0.1902,-0.1953,-0.2045,-0.2134,-0.2188,-0.2234,-0.2299,-0.2353,-0.2328,-0.2342,-0.2332,-0.2326,-0.2355,-0.2272,-0.2268,-0.2263,-0.2335,-0.2259,-0.2255,-0.2313,-0.2313,-0.2314,-0.2331,0,-0.1721,-0.1802,-0.1841,-0.1961,-0.2019,-0.2081,-0.217,-0.2248,-0.2295,-0.2356,-0.2368,-0.241,-0.2391,-0.2392,-0.2395,-0.2353,-0.2364,-0.2355,-0.2276,-0.2275,-0.2184,-0.2256,-0.2135,-0.2133,-0.2334,-0.2335,-0.2335,0,-0.1749,-0.1808,-0.1899,-0.2045,-0.2076,-0.215,-0.2278,-0.236,-0.2438,-0.2464,-0.25,-0.2492,-0.2519,-0.2467,-0.2455,-0.2444,-0.2408,-0.2373,-0.2372,-0.2263,-0.2204,-0.2088,-0.2131,-0.2106,-0.234,-0.2339,-0.2339,0,-0.1729,-0.1866,-0.1936,-0.1982,-0.2129,-0.2192,-0.228,-0.2379,-0.2435,-0.2508,-0.252,-0.2562,-0.2546,-0.2524,-0.2464,-0.2453,-0.2424,-0.2393,-0.2309,-0.2304,-0.2165,-0.2146,-0.2154,-0.239,-0.239,-0.239,-0.239,0,-0.1753,-0.1832,-0.1929,-0.1969,-0.2089,-0.219,-0.2295,-0.2383,-0.2461,-0.2502,-0.255,-0.2563,-0.2547,-0.2527,-0.2489,-0.2408,-0.2445,-0.2333,-0.2302,-0.22,-0.2185,-0.2124,-0.2135,-0.2391,-0.2391,-0.239,-0.239,0,-0.1734,-0.1785,-0.188,-0.2015,-0.2069,-0.2146,-0.2297,-0.2353,-0.2434,-0.2479,-0.2491,-0.2546,-0.2518,-0.2508,-0.246,-0.2411,-0.2306,-0.2324,-0.2219,-0.2174,-0.2054,-0.2074,-0.2038,-0.1984,-0.2238,-0.2236,-0.2235,0,-0.1746,-0.1772,-0.1878,-0.192,-0.1983,-0.2106,-0.2176,-0.2314,-0.2355,-0.2454,-0.2452,-0.2468,-0.2445,-0.2384,-0.2307,-0.2245,-0.2238,-0.2107,-0.2062,-0.2043,-0.2044,-0.2056,-0.2015,-0.1938,-0.1934,-0.1931,-0.1928,0,-0.1768,-0.176,-0.1807,-0.1867,-0.1937,-0.2037,-0.2144,-0.2169,-0.2291,-0.2314,-0.2333,-0.2326,-0.2291,-0.2169,-0.2105,-0.2054,-0.2035,-0.2038,-0.2036,-0.183,-0.1826,-0.1758,-0.1959,-0.19,-0.1903,-0.1905,-0.1907,-0.1908,-0.1761,-0.1761,-0.176,-0.1821,-0.189,-0.1933,-0.1947,-0.2015,-0.2043,-0.2026,-0.2133,-0.207,-0.2033,-0.1915,-0.1877,-0.1758,-0.1827,-0.1693,-0.1731,-0.1754,-0.1664,-0.1817,-0.1705,-0.1707,-0.1708,-0.1709,-0.171,0,-0.1748,-0.1717,-0.174,-0.1765,-0.1772,-0.1844,-0.189,-0.184,-0.1783,-0.1806,-0.1779,-0.1748,-0.1635,-0.1633,-0.1537,-0.1466,-0.1439,-0.1448,-0.1443,-0.1422,-0.1556,-0.1502,-0.1318,-0.1318,-0.1319,-0.1319,-0.1319,-0.1319,-0.1725,-0.1693,-0.1665,-0.163,-0.1641,-0.1585,-0.156,-0.1487,-0.1463,-0.1375,-0.1363,-0.1414,-0.146,-0.1501,-0.1396,-0.133,-0.1311,-0.1258,-0.1317,-0.1419,-0.1445,-0.147,-0.1421,-0.1224,-0.1224,-0.1104,-0.1103,-0.1103]},{"header":{"parameterUnit":"m.s-1","parameterCategory":2,"la1":30.2991,"la2":30.254,"lo1":-89.0895,"lo2":-89.0444,"dy":0.0017,"dx":0.0017,"nx":28,"ny":28,"refTime":"2025-04-01T09:00:00:Z","depth":"0","parameterNumber":3,"parameterNumberName":"V-component_of_CURRENTS"},"data":[0,0,0,0,0,0,0,0,0,0,0,0,0,0,0,0,0,0,0,0,0,0,0,0,0,0,0,0,0,0,0,0,0,0,0,0,0,0,0,0,0,0,0,0,0,0,0,0,0,0,0,0,0,0,0,0,0,0,-0.0533,-0.0534,0,-0.0574,-0.0575,-0.0575,-0.0547,-0.0546,-0.0545,-0.0544,-0.0421,-0.0419,-0.0417,0,0,0,0,0,0,0,0,0,0,0,0,0,-0.043,-0.0432,-0.0533,-0.0534,-0.0535,-0.0574,-0.0575,-0.0575,-0.0547,-0.0546,-0.0544,-0.0543,-0.0422,-0.0419,-0.0416,0,0,0,0,0,0,0,0,0,0,0,0,0,-0.0472,-0.0432,-0.0533,-0.0526,-0.0526,-0.0574,-0.0575,-0.0575,-0.0548,-0.0546,-0.0544,-0.0542,-0.0423,-0.0419,-0.0416,-0.043,0,0,-0.0406,-0.0405,0,0,0,0,0,0,0,0,-0.0469,-0.0475,-0.0527,-0.0527,-0.0527,-0.0555,-0.0493,-0.0519,-0.0548,-0.0538,-0.0544,-0.0542,-0.0453,-0.0447,-0.0459,-0.0424,-0.0419,-0.0406,-0.0404,-0.0402,-0.0401,0,0,0,0,0,0,0,-0.0467,-0.0474,-0.0548,-0.0528,-0.0528,-0.0521,-0.0525,-0.0499,-0.05,-0.0539,-0.0537,-0.0544,-0.0451,-0.0462,-0.0455,-0.0417,-0.0406,-0.0403,-0.0401,-0.04,-0.0379,-0.0381,0,0,0,0,0,0,-0.0467,-0.0471,-0.0547,-0.055,-0.0495,-0.0524,-0.0529,-0.0547,-0.0504,-0.0498,-0.0546,-0.0543,-0.0469,-0.0459,-0.0451,-0.0437,-0.0402,-0.0399,-0.0397,-0.0378,-0.038,-0.0381,0,0,0,0,0,0,-0.0464,-0.0474,-0.0545,-0.0511,-0.052,-0.0528,-0.0548,-0.0548,-0.0555,-0.0512,-0.0501,-0.0552,-0.0467,-0.0455,-0.043,-0.0432,-0.0398,-0.0395,-0.0376,-0.0379,-0.0381,-0.0427,0,0,0,0,0,0,-0.0462,-0.0473,-0.0488,-0.0512,-0.0522,-0.0577,-0.055,-0.055,-0.0563,-0.056,-0.0514,-0.0501,-0.0465,-0.0435,-0.0427,-0.0427,-0.0392,-0.0374,-0.0377,-0.038,-0.0423,-0.043,-0.0436,0,0,0,0,0,-0.0458,-0.0491,-0.0489,-0.0498,-0.0543,-0.0578,-0.0583,-0.0581,-0.0565,-0.0579,-0.0545,-0.0502,-0.0446,-0.0434,-0.0423,-0.0423,-0.0373,-0.0377,-0.038,-0.042,-0.0429,-0.0436,0,0,0,0,0,0,-0.0453,-0.0492,-0.049,-0.0532,-0.0553,-0.0574,-0.0593,-0.0588,-0.0578,-0.0568,-0.0517,-0.0503,-0.0482,-0.0457,-0.0445,-0.043,-0.0405,-0.0406,-0.0439,-0.0447,-0.0453,-0.0446,-0.0389,0,0,0,0,0,-0.0461,-0.0495,-0.0522,-0.0554,-0.0569,-0.0581,-0.0595,-0.0595,-0.0591,-0.0586,-0.0553,-0.0521,-0.0493,-0.0472,-0.0448,-0.0438,-0.0402,-0.0436,-0.0442,-0.0447,-0.0439,-0.0394,-0.0394,-0.0392,-0.0392,-0.0392,0,0,-0.0466,-0.0493,-0.051,-0.0555,-0.0572,-0.0598,-0.0585,-0.0615,-0.0624,-0.0571,-0.0569,-0.0539,-0.0497,-0.0485,-0.0474,-0.0459,-0.0435,-0.0452,-0.0456,-0.0444,-0.0397,-0.0396,-0.0396,-0.0394,-0.0394,-0.0393,0,0,-0.0494,-0.0521,-0.0555,-0.0578,-0.0611,-0.062,-0.0628,-0.0651,-0.0649,-0.065,-0.0611,-0.0586,-0.0553,-0.0522,-0.05,-0.0531,-0.047,-0.0528,-0.0546,-0.0503,-0.0502,-0.05,-0.047,-0.0465,-0.0529,-0.0529,-0.0529,0,-0.049,-0.0546,-0.0568,-0.0603,-0.0626,-0.0628,-0.0661,-0.0666,-0.0671,-0.0665,-0.0653,-0.0602,-0.0569,-0.0536,-0.0548,-0.054,-0.0509,-0.0515,-0.0508,-0.0506,-0.0503,-0.0472,-0.0466,-0.0532,-0.0531,-0.0531,-0.0531,0,-0.0536,-0.0583,-0.0609,-0.065,-0.0673,-0.071,-0.0718,-0.0729,-0.0723,-0.0712,-0.0689,-0.0651,-0.0614,-0.0609,-0.0582,-0.0554,-0.0536,-0.052,-0.0481,-0.0505,-0.0472,-0.0465,-0.0535,-0.0535,-0.0534,-0.0533,0,0,-0.0524,-0.0621,-0.0628,-0.0671,-0.0706,-0.0737,-0.0748,-0.0763,-0.0763,-0.0748,-0.0735,-0.0696,-0.0665,-0.064,-0.0605,-0.057,-0.0535,-0.054,-0.0536,-0.0497,-0.0443,-0.036,-0.0344,-0.0509,-0.0508,-0.0507,-0.0432,0,-0.0551,-0.064,-0.0668,-0.0741,-0.0795,-0.0801,-0.0813,-0.0816,-0.0802,-0.0787,-0.0736,-0.0708,-0.0679,-0.0659,-0.0619,-0.0553,-0.0516,-0.0558,-0.0436,-0.0433,-0.0344,-0.0332,-0.0294,-0.0216,-0.0425,-0.0424,-0.0423,0,-0.0577,-0.0649,-0.0729,-0.0819,-0.0837,-0.0862,-0.0887,-0.0896,-0.0858,-0.0843,-0.0794,-0.0744,-0.0686,-0.0661,-0.0551,-0.0576,-0.0513,-0.0464,-0.0459,-0.0354,-0.0335,-0.0224,-0.0195,-0.009,-0.0411,-0.0412,-0.0413,0,-0.0578,-0.0687,-0.0761,-0.0791,-0.0876,-0.09,-0.0923,-0.0908,-0.0916,-0.0865,-0.0851,-0.0768,-0.0728,-0.0635,-0.0521,-0.0536,-0.0391,-0.0401,-0.0268,-0.0263,-0.019,-0.0179,-0.0028,-0.0318,-0.0318,-0.0318,-0.0319,0,-0.0603,-0.0668,-0.0776,-0.0822,-0.091,-0.0933,-0.0975,-0.0981,-0.0958,-0.0955,-0.0876,-0.084,-0.0717,-0.0615,-0.0519,-0.0355,-0.0385,-0.0255,-0.0226,-0.0208,-0.02,-0.0073,-0.0043,-0.0316,-0.0316,-0.0317,-0.0317,0,-0.0605,-0.0665,-0.0777,-0.0886,-0.0921,-0.0981,-0.104,-0.1059,-0.1026,-0.1014,-0.0997,-0.0892,-0.0745,-0.0604,-0.0443,-0.0349,-0.0125,-0.0143,-0.0131,-0.0099,0.012,0.0144,0.0337,0.0395,0.0006,0.0008,0.0011,0,-0.0623,-0.0676,-0.0828,-0.0904,-0.0964,-0.1046,-0.1094,-0.1098,-0.1107,-0.1039,-0.1032,-0.0883,-0.0759,-0.0479,-0.0272,-0.0063,-0.0003,0.008,0.0066,0.0163,0.021,0.0224,0.0257,0.0126,0.0129,0.0131,0.0133,0,-0.0672,-0.0714,-0.0815,-0.0969,-0.1057,-0.1146,-0.1205,-0.1214,-0.1189,-0.1148,-0.105,-0.0933,-0.0638,-0.0356,-0.0069,0.0051,0.0174,0.0139,0.0239,0.0332,0.0358,0.0416,0.0029,0.0155,0.0153,0.0151,0.015,0.0149,-0.0711,-0.0796,-0.0918,-0.1057,-0.1158,-0.1232,-0.1262,-0.1266,-0.1249,-0.1141,-0.1046,-0.0826,-0.0446,-0.0015,0.0125,0.043,0.0375,0.0499,0.0521,0.0527,0.0596,0.0266,0.0431,0.0431,0.043,0.043,0.0429,0,-0.0779,-0.0867,-0.1001,-0.1162,-0.126,-0.129,-0.1331,-0.13,-0.1237,-0.1096,-0.0948,-0.0517,-0.0128,0.0204,0.0635,0.0791,0.0792,0.0856,0.0865,0.0879,0.0594,0.0614,0.0828,0.0828,0.0828,0.0828,0.0828,0.0828,-0.082,-0.0964,-0.1036,-0.1223,-0.1308,-0.1377,-0.1376,-0.1282,-0.1162,-0.0881,-0.0625,-0.0439,0.0027,0.0695,0.1074,0.1103,0.119,0.1204,0.1244,0.1024,0.0991,0.0959,0.0988,0.1277,0.1277,0.1514,0.1517,0.1518]}],[{"header":{"parameterUnit":"m.s-1","parameterCategory":2,"la1":30.2991,"la2":30.254,"lo1":-89.0895,"lo2":-89.0444,"dy":0.0017,"dx":0.0017,"nx":28,"ny":28,"refTime":"2025-04-01T09:00:00:Z","depth":"2","parameterNumber":2,"parameterNumberName":"U-component_of_CURRENTS"},"data":[0,0,0,0,0,0,0,0,0,0,0,0,0,0,0,0,0,0,0,0,0,0,0,0,0,0,0,0,0,0,0,0,0,0,0,0,0,0,0,0,0,0,0,0,0,0,0,0,0,0,0,0,0,0,0,0,0,0,-0.1176,-0.1176,0,-0.1298,-0.13,-0.1302,-0.1293,-0.129,-0.1287,-0.1284,-0.1187,-0.1187,-0.1187,0,0,0,0,0,0,0,0,0,0,0,0,0,-0.118,-0.1179,-0.1176,-0.1176,-0.1177,-0.1297,-0.13,-0.1303,-0.1293,-0.129,-0.1286,-0.1283,-0.1187,-0.1187,-0.1187,0,0,0,0,0,0,0,0,0,0,0,0,0,-0.1238,-0.1179,-0.1176,-0.1178,-0.1178,-0.1297,-0.13,-0.1304,-0.1294,-0.129,-0.1285,-0.1281,-0.1187,-0.1187,-0.1187,-0.1275,0,0,-0.1187,-0.1187,0,0,0,0,0,0,0,0,-0.1234,-0.1239,-0.1177,-0.1178,-0.1179,-0.1265,-0.1265,-0.1279,-0.1295,-0.1263,-0.1284,-0.1279,-0.1188,-0.1188,-0.124,-0.127,-0.1266,-0.1187,-0.1187,-0.1188,-0.1188,0,0,0,0,0,0,0,-0.123,-0.1235,-0.1236,-0.1178,-0.1179,-0.1256,-0.1259,-0.1271,-0.1253,-0.1265,-0.1262,-0.1258,-0.1188,-0.1241,-0.1237,-0.1265,-0.1187,-0.1188,-0.1188,-0.1188,-0.1145,-0.1144,0,0,0,0,0,0,-0.1184,-0.123,-0.1232,-0.1238,-0.1183,-0.1257,-0.1261,-0.1252,-0.1258,-0.1253,-0.1262,-0.1257,-0.1243,-0.1237,-0.1233,-0.1234,-0.1188,-0.1188,-0.1188,-0.1147,-0.1145,-0.1144,0,0,0,0,0,0,-0.1183,-0.1183,-0.1227,-0.1229,-0.1237,-0.1259,-0.1251,-0.1256,-0.1281,-0.1256,-0.1248,-0.1275,-0.1239,-0.1233,-0.1195,-0.1232,-0.1188,-0.1188,-0.1148,-0.1146,-0.1144,-0.13,0,0,0,0,0,0,-0.1183,-0.1182,-0.1176,-0.1225,-0.1235,-0.1251,-0.1254,-0.1261,-0.1281,-0.1276,-0.1266,-0.1254,-0.1235,-0.1195,-0.1195,-0.1232,-0.1188,-0.115,-0.1147,-0.1145,-0.1296,-0.1303,-0.131,0,0,0,0,0,-0.1183,-0.1174,-0.1175,-0.1176,-0.122,-0.125,-0.1264,-0.1274,-0.1286,-0.1287,-0.127,-0.1253,-0.1179,-0.1195,-0.1195,-0.1233,-0.1151,-0.1148,-0.1145,-0.1293,-0.1302,-0.1309,0,0,0,0,0,0,-0.1178,-0.1173,-0.1175,-0.1166,-0.1185,-0.1242,-0.1256,-0.1279,-0.1288,-0.1282,-0.126,-0.1248,-0.123,-0.1191,-0.1209,-0.1199,-0.1155,-0.1152,-0.1267,-0.1275,-0.1281,-0.1309,-0.1188,0,0,0,0,0,-0.1174,-0.1163,-0.1175,-0.1173,-0.1178,-0.1228,-0.125,-0.1262,-0.1271,-0.1275,-0.1279,-0.1254,-0.1234,-0.1215,-0.1196,-0.1209,-0.1202,-0.1216,-0.1223,-0.123,-0.1244,-0.1298,-0.1315,-0.1135,-0.1135,-0.1135,0,0,-0.1172,-0.1171,-0.1164,-0.1172,-0.1201,-0.1236,-0.1232,-0.1259,-0.1292,-0.1261,-0.1308,-0.129,-0.1237,-0.1245,-0.1232,-0.1211,-0.1265,-0.1226,-0.1234,-0.1244,-0.1298,-0.1317,-0.1333,-0.1133,-0.1133,-0.1134,0,0,-0.1182,-0.1162,-0.1167,-0.1186,-0.1209,-0.124,-0.1239,-0.1297,-0.1309,-0.1338,-0.1327,-0.1331,-0.1303,-0.1307,-0.129,-0.1317,-0.1303,-0.1286,-0.1358,-0.1412,-0.143,-0.1445,-0.1432,-0.1445,-0.1288,-0.1289,-0.1289,0,-0.119,-0.1194,-0.1177,-0.1204,-0.1235,-0.1237,-0.1285,-0.1305,-0.135,-0.1386,-0.1335,-0.138,-0.1342,-0.1382,-0.1376,-0.1347,-0.1343,-0.135,-0.1432,-0.1447,-0.146,-0.1443,-0.1456,-0.1296,-0.1295,-0.1294,-0.1294,0,-0.1208,-0.1228,-0.1235,-0.1268,-0.1302,-0.133,-0.1353,-0.1401,-0.1419,-0.1452,-0.1491,-0.1464,-0.1488,-0.1473,-0.1428,-0.1508,-0.1461,-0.145,-0.1438,-0.149,-0.1464,-0.1475,-0.1306,-0.1303,-0.1301,-0.13,0,0,-0.12,-0.124,-0.1248,-0.129,-0.1341,-0.1374,-0.1439,-0.1505,-0.1562,-0.1578,-0.166,-0.1637,-0.1646,-0.1623,-0.1599,-0.1632,-0.1711,-0.1579,-0.1579,-0.1611,-0.1789,-0.1689,-0.169,-0.1732,-0.1735,-0.1737,-0.1725,0,-0.1232,-0.1285,-0.1313,-0.14,-0.1438,-0.1492,-0.1551,-0.1616,-0.1648,-0.1717,-0.1711,-0.1743,-0.1687,-0.1705,-0.174,-0.171,-0.1749,-0.1712,-0.1692,-0.169,-0.1637,-0.1705,-0.1569,-0.1543,-0.1736,-0.1737,-0.1739,0,-0.125,-0.1289,-0.136,-0.1476,-0.15,-0.1551,-0.168,-0.1733,-0.1817,-0.1849,-0.1909,-0.1893,-0.1933,-0.1874,-0.1896,-0.1873,-0.185,-0.1824,-0.1824,-0.1691,-0.1613,-0.152,-0.1555,-0.1756,-0.1755,-0.1754,-0.1752,0,-0.1238,-0.1339,-0.1393,-0.1426,-0.1536,-0.1602,-0.1669,-0.1772,-0.1839,-0.1933,-0.1983,-0.203,-0.2021,-0.2041,-0.1957,-0.1946,-0.1962,-0.1944,-0.1838,-0.1827,-0.1685,-0.1657,-0.2005,-0.2005,-0.2005,-0.2005,-0.2005,0,-0.1251,-0.1312,-0.1382,-0.1406,-0.1496,-0.1591,-0.1711,-0.178,-0.1907,-0.1974,-0.2029,-0.2061,-0.2064,-0.2054,-0.2014,-0.1934,-0.2012,-0.1867,-0.1842,-0.1724,-0.1701,-0.1862,-0.1845,-0.2004,-0.2005,-0.2005,-0.2005,0,-0.1232,-0.127,-0.1341,-0.1444,-0.1477,-0.1537,-0.1714,-0.1796,-0.1911,-0.2006,-0.2038,-0.2087,-0.2051,-0.2035,-0.2021,-0.1964,-0.1932,-0.1894,-0.1714,-0.1669,-0.1745,-0.1736,-0.1794,-0.1791,-0.1789,-0.1786,-0.1784,0,-0.1236,-0.1251,-0.1328,-0.1357,-0.1396,-0.1516,-0.1591,-0.1759,-0.1857,-0.1992,-0.2014,-0.2023,-0.1974,-0.1906,-0.1847,-0.1785,-0.1847,-0.163,-0.1604,-0.1766,-0.1736,-0.173,-0.1725,-0.1455,-0.1451,-0.1448,-0.1445,0,-0.1242,-0.124,-0.1279,-0.1301,-0.136,-0.148,-0.16,-0.1681,-0.186,-0.1903,-0.1915,-0.188,-0.1818,-0.1667,-0.1605,-0.1556,-0.1632,-0.1553,-0.1811,-0.1525,-0.1445,-0.1415,-0.1421,-0.1413,-0.1416,-0.1418,-0.142,-0.1421,-0.1238,-0.1242,-0.124,-0.1262,-0.133,-0.1408,-0.1462,-0.1574,-0.165,-0.1683,-0.1734,-0.1625,-0.1597,-0.1406,-0.1337,-0.1304,-0.1409,-0.1352,-0.1365,-0.1381,-0.1339,-0.126,-0.118,-0.1182,-0.1184,-0.1185,-0.1186,0,-0.1219,-0.1205,-0.1214,-0.1235,-0.1264,-0.132,-0.144,-0.1453,-0.1438,-0.146,-0.142,-0.1259,-0.115,-0.115,-0.1049,-0.1021,-0.1028,-0.0978,-0.0994,-0.1025,-0.1053,-0.0998,-0.0747,-0.0746,-0.0744,-0.0743,0,0,-0.121,-0.1176,-0.1149,-0.1142,-0.1167,-0.1168,-0.12,-0.1168,-0.1178,-0.1082,-0.1031,-0.1079,-0.1106,-0.0929,-0.0883,-0.0803,-0.0906,-0.076,-0.1111,-0.1159,-0.1186,-0.1262,-0.121,0,0,0,0,0]},{"header":{"parameterUnit":"m.s-1","parameterCategory":2,"la1":30.2991,"la2":30.254,"lo1":-89.0895,"lo2":-89.0444,"dy":0.0017,"dx":0.0017,"nx":28,"ny":28,"refTime":"2025-04-01T09:00:00:Z","depth":"2","parameterNumber":3,"parameterNumberName":"V-component_of_CURRENTS"},"data":[0,0,0,0,0,0,0,0,0,0,0,0,0,0,0,0,0,0,0,0,0,0,0,0,0,0,0,0,0,0,0,0,0,0,0,0,0,0,0,0,0,0,0,0,0,0,0,0,0,0,0,0,0,0,0,0,0,0,-0.0128,-0.0128,0,-0.0181,-0.0183,-0.0184,-0.0161,-0.0159,-0.0157,-0.0155,-0.0009,-0.0007,-0.0005,0,0,0,0,0,0,0,0,0,0,0,0,0,-0.0109,-0.0109,-0.0128,-0.0128,-0.0128,-0.0181,-0.0183,-0.0184,-0.0162,-0.0159,-0.0157,-0.0155,-0.0009,-0.0007,-0.0005,0,0,0,0,0,0,0,0,0,0,0,0,0,-0.0143,-0.011,-0.0128,-0.0117,-0.0116,-0.0181,-0.0183,-0.0185,-0.0162,-0.0159,-0.0156,-0.0153,-0.001,-0.0007,-0.0004,-0.0047,0,0,0.0005,0.0006,0,0,0,0,0,0,0,0,-0.0141,-0.0145,-0.0119,-0.0118,-0.0116,-0.0154,-0.0122,-0.0126,-0.0163,-0.0153,-0.0155,-0.0152,-0.0036,-0.0031,-0.0062,-0.004,-0.0034,0.0005,0.0007,0.0008,0.0009,0,0,0,0,0,0,0,-0.0138,-0.0143,-0.0157,-0.0119,-0.0117,-0.0144,-0.0145,-0.0125,-0.0114,-0.0154,-0.015,-0.0144,-0.0034,-0.0065,-0.0057,-0.0031,0.0005,0.0008,0.001,0.0011,0.0117,0.0118,0,0,0,0,0,0,-0.0114,-0.014,-0.0155,-0.0158,-0.0112,-0.0146,-0.0148,-0.0152,-0.0118,-0.0109,-0.0147,-0.0143,-0.0072,-0.0061,-0.0052,0.0009,0.0008,0.0011,0.0013,0.0116,0.0117,0.0118,0,0,0,0,0,0,-0.0113,-0.0115,-0.0153,-0.0143,-0.0148,-0.0148,-0.0154,-0.0154,-0.0164,-0.0113,-0.0102,-0.0151,-0.0069,-0.0056,-0.0001,0.0012,0.0012,0.0015,0.0115,0.0116,0.0118,0.0062,0,0,0,0,0,0,-0.0113,-0.0115,-0.0121,-0.0142,-0.0148,-0.0165,-0.0156,-0.0157,-0.0162,-0.0157,-0.0113,-0.0098,-0.0066,-0.0006,0.0001,0.0016,0.0017,0.0114,0.0116,0.0117,0.0063,0.0062,0.0061,0,0,0,0,0,-0.0112,-0.012,-0.0121,-0.0122,-0.0152,-0.0164,-0.0171,-0.0166,-0.0164,-0.0166,-0.0129,-0.0099,0.0013,-0.0004,0.0005,0.0021,0.0113,0.0115,0.0117,0.0063,0.0062,0.0061,0,0,0,0,0,0,-0.011,-0.0119,-0.012,-0.0128,-0.0133,-0.0156,-0.0167,-0.0168,-0.0155,-0.015,-0.01,-0.0083,-0.0027,0.0004,-0.0015,0.0062,0.0073,0.0077,0.0029,0.0028,0.0027,0.0014,0.002,0,0,0,0,0,-0.0115,-0.0126,-0.013,-0.0139,-0.0143,-0.0161,-0.017,-0.0171,-0.0159,-0.0153,-0.013,-0.0083,-0.0022,0.0011,0.0051,0.0079,0.0093,0.0103,0.0102,0.0101,0.0099,0.0101,0.0098,0.0126,0.0126,0.0126,0,0,-0.0117,-0.0123,-0.013,-0.014,-0.0156,-0.017,-0.0161,-0.0177,-0.0176,-0.0136,-0.0136,-0.0094,-0.0014,0.0026,0.0055,0.0061,0.0106,0.0104,0.0102,0.0101,0.0103,0.01,0.0097,0.0127,0.0127,0.0127,0,0,-0.0136,-0.0135,-0.0157,-0.0165,-0.0179,-0.0182,-0.018,-0.0208,-0.0199,-0.0185,-0.0147,-0.0099,-0.0036,0.0014,0.006,0.0077,0.0097,0.0098,0.0082,0.0083,0.008,0.0077,0.0105,0.0106,0.01,0.01,0.01,0,-0.0138,-0.0167,-0.0163,-0.0187,-0.0197,-0.0182,-0.0208,-0.0199,-0.0205,-0.0195,-0.0173,-0.0092,-0.0036,0.0039,0.0051,0.0074,0.0079,0.0075,0.0078,0.0075,0.0073,0.0103,0.0103,0.0098,0.0098,0.0098,0.0099,0,-0.0167,-0.02,-0.0213,-0.0235,-0.0241,-0.0261,-0.0242,-0.025,-0.0234,-0.0216,-0.016,-0.0099,-0.0048,-0.0012,0.0032,0.0057,0.0068,0.0067,0.0069,0.0066,0.0099,0.0101,0.0094,0.0095,0.0096,0.0097,0,0,-0.016,-0.0223,-0.023,-0.0268,-0.0274,-0.0288,-0.0278,-0.0263,-0.0248,-0.0222,-0.0203,-0.0098,-0.0085,-0.0033,0.0014,0.0033,0.0033,0.0039,0.004,0.0046,0.0044,0.0101,0.0109,0.0014,0.0014,0.0014,0.0076,0,-0.019,-0.026,-0.0269,-0.0327,-0.0369,-0.0354,-0.0334,-0.0315,-0.0276,-0.0254,-0.017,-0.0126,-0.0079,-0.0064,-0.0038,0.0017,0.0032,0.0017,0.0064,0.0067,0.0099,0.0111,0.0092,0.0149,0.0078,0.0078,0.0078,0,-0.0216,-0.0272,-0.0342,-0.0398,-0.0406,-0.0416,-0.0405,-0.0391,-0.0325,-0.0298,-0.0249,-0.0192,-0.0133,-0.0114,-0.0028,-0.0048,-0.0014,0.003,0.0033,0.0105,0.0126,0.0141,0.0155,0.0082,0.0081,0.0081,0.0081,0,-0.0234,-0.0318,-0.0381,-0.0402,-0.0445,-0.0461,-0.0459,-0.0409,-0.0405,-0.0346,-0.0336,-0.0246,-0.0209,-0.0159,-0.0051,-0.0062,0.0038,0.0031,0.0122,0.0128,0.0134,0.0141,0.0061,0.0061,0.0061,0.006,0.006,0,-0.0262,-0.0318,-0.0401,-0.044,-0.0495,-0.0501,-0.0523,-0.0496,-0.0471,-0.046,-0.0375,-0.0341,-0.0228,-0.0146,-0.0073,0.0052,0.0017,0.0127,0.0145,0.012,0.0124,0.008,0.0082,0.0063,0.0062,0.0062,0.0061,0,-0.028,-0.0327,-0.0425,-0.0499,-0.0515,-0.056,-0.0603,-0.0607,-0.0568,-0.0563,-0.0559,-0.0428,-0.0302,-0.0168,-0.0048,0.0037,0.0138,0.018,0.0168,0.0183,0.023,0.0228,0.0279,0.0282,0.0284,0.0286,0.0287,0,-0.0298,-0.0348,-0.0476,-0.0539,-0.0581,-0.0648,-0.067,-0.0662,-0.0677,-0.0607,-0.0604,-0.047,-0.0352,-0.0113,0.0049,0.0209,0.0192,0.0285,0.0265,0.0239,0.0251,0.0246,0.0241,0.0257,0.0259,0.0259,0.026,0,-0.0347,-0.039,-0.0483,-0.0607,-0.0673,-0.075,-0.0791,-0.0821,-0.0792,-0.0749,-0.0653,-0.0549,-0.0295,-0.0078,0.0152,0.0234,0.0262,0.031,0.0269,0.0212,0.0225,0.0235,0.0229,0.0268,0.0267,0.0267,0.0266,0.0266,-0.0389,-0.0472,-0.0585,-0.0697,-0.0776,-0.0842,-0.088,-0.0887,-0.088,-0.0794,-0.0692,-0.0495,-0.0284,0.0063,0.0214,0.0354,0.0342,0.0374,0.0368,0.0361,0.0355,0.0371,0.0442,0.0442,0.0442,0.0442,0.0442,0,-0.0445,-0.0541,-0.0659,-0.08,-0.0885,-0.0895,-0.0949,-0.0942,-0.0901,-0.0781,-0.0653,-0.04,-0.0148,0.0055,0.0287,0.0429,0.0395,0.0447,0.0372,0.0364,0.0357,0.0347,0.0434,0.0434,0.0434,0.0434,0,0,-0.0489,-0.0619,-0.0688,-0.0865,-0.0945,-0.1007,-0.1028,-0.096,-0.0879,-0.0727,-0.0577,-0.0386,-0.0133,0.0032,0.0207,0.0326,0.0302,0.0332,0.0326,0.0208,0.0199,0.0306,0.0282,0,0,0,0,0]}],[{"header":{"parameterUnit":"m.s-1","parameterCategory":2,"la1":30.2991,"la2":30.254,"lo1":-89.0895,"lo2":-89.0444,"dy":0.0017,"dx":0.0017,"nx":28,"ny":28,"refTime":"2025-04-01T09:00:00:Z","depth":"4","parameterNumber":2,"parameterNumberName":"U-component_of_CURRENTS"},"data":[0,0,0,0,0,0,0,0,0,0,0,0,0,0,0,0,0,0,0,0,0,0,0,0,0,0,0,0,0,0,0,0,0,0,0,0,0,0,0,0,0,0,0,0,0,0,0,0,0,0,0,0,0,0,0,0,0,0,-0.0573,-0.0573,0,-0.0525,-0.0524,-0.0524,-0.0543,-0.0545,-0.0546,-0.0547,-0.0553,-0.0552,-0.0551,0,0,0,0,0,0,0,0,0,0,0,0,0,-0.0526,-0.0528,-0.0573,-0.0573,-0.0573,-0.0525,-0.0524,-0.0523,-0.0543,-0.0545,-0.0546,-0.0548,-0.0554,-0.0552,-0.0551,0,0,0,0,0,0,0,0,0,0,0,0,0,-0.0518,-0.0528,-0.0574,-0.0578,-0.0578,-0.0525,-0.0524,-0.0523,-0.0543,-0.0545,-0.0547,-0.0549,-0.0554,-0.0552,-0.0551,-0.0501,0,0,-0.0546,-0.0545,0,0,0,0,0,0,0,0,-0.0518,-0.0519,-0.0578,-0.0578,-0.0578,-0.0544,-0.051,-0.0519,-0.0542,-0.0554,-0.0547,-0.055,-0.0555,-0.0553,-0.0536,-0.0501,-0.0501,-0.0546,-0.0545,-0.0544,-0.0544,0,0,0,0,0,0,0,-0.0519,-0.0521,-0.0552,-0.0577,-0.0577,-0.0529,-0.0531,-0.051,-0.0544,-0.0553,-0.0555,-0.0552,-0.0555,-0.0538,-0.0537,-0.0502,-0.0546,-0.0544,-0.0543,-0.0543,-0.0465,-0.0464,0,0,0,0,0,0,-0.0535,-0.0522,-0.0554,-0.0551,-0.0555,-0.0529,-0.0531,-0.0551,-0.0543,-0.0543,-0.0551,-0.0553,-0.054,-0.0539,-0.0537,-0.053,-0.0544,-0.0543,-0.0542,-0.0466,-0.0465,-0.0464,0,0,0,0,0,0,-0.0535,-0.054,-0.0556,-0.0535,-0.0534,-0.0529,-0.055,-0.0549,-0.054,-0.054,-0.0542,-0.0545,-0.0541,-0.054,-0.0524,-0.0529,-0.0542,-0.054,-0.0468,-0.0466,-0.0464,-0.0482,0,0,0,0,0,0,-0.0534,-0.054,-0.0557,-0.0537,-0.0536,-0.0524,-0.0548,-0.0547,-0.0536,-0.0539,-0.0535,-0.0537,-0.0543,-0.0527,-0.0523,-0.0527,-0.0539,-0.0469,-0.0467,-0.0465,-0.0482,-0.0481,-0.0479,0,0,0,0,0,-0.0533,-0.0542,-0.0558,-0.0562,-0.0562,-0.0523,-0.0517,-0.0517,-0.0534,-0.0518,-0.0524,-0.0538,-0.0512,-0.0524,-0.052,-0.0524,-0.047,-0.0467,-0.0465,-0.0483,-0.0481,-0.0479,0,0,0,0,0,0,-0.0512,-0.0544,-0.0562,-0.0578,-0.0555,-0.0527,-0.0516,-0.0513,-0.05,-0.0516,-0.0518,-0.0519,-0.0504,-0.0501,-0.0515,-0.0492,-0.0494,-0.0491,-0.0509,-0.0507,-0.0506,-0.0537,-0.0538,0,0,0,0,0,-0.0521,-0.0549,-0.0546,-0.0553,-0.055,-0.0533,-0.0519,-0.0518,-0.0505,-0.0502,-0.0497,-0.0495,-0.0485,-0.0489,-0.047,-0.0456,-0.0496,-0.0454,-0.0453,-0.0452,-0.0472,-0.0547,-0.0557,-0.0456,-0.0456,-0.0456,0,0,-0.0516,-0.0533,-0.0549,-0.0552,-0.0541,-0.052,-0.0529,-0.051,-0.0495,-0.0504,-0.0485,-0.048,-0.0474,-0.0462,-0.0456,-0.0468,-0.0493,-0.0449,-0.0449,-0.0469,-0.0546,-0.0557,-0.0566,-0.0454,-0.0454,-0.0455,0,0,-0.0495,-0.0533,-0.0544,-0.0531,-0.0523,-0.0509,-0.0505,-0.0482,-0.0482,-0.0452,-0.0465,-0.0471,-0.0433,-0.0451,-0.0451,-0.0426,-0.0473,-0.0412,-0.0446,-0.0519,-0.0529,-0.0539,-0.0582,-0.0595,-0.0425,-0.0425,-0.0425,0,-0.0463,-0.0514,-0.0528,-0.0519,-0.0511,-0.0506,-0.0488,-0.0474,-0.0446,-0.0457,-0.0449,-0.0444,-0.0433,-0.0459,-0.0451,-0.0428,-0.0472,-0.0459,-0.0523,-0.0533,-0.0543,-0.0585,-0.06,-0.0425,-0.0425,-0.0425,-0.0425,0,-0.0473,-0.0491,-0.0486,-0.0494,-0.0468,-0.0458,-0.0442,-0.043,-0.0429,-0.043,-0.0445,-0.0442,-0.0457,-0.0444,-0.0438,-0.0498,-0.0505,-0.0507,-0.0541,-0.0556,-0.0596,-0.0612,-0.0426,-0.0426,-0.0426,-0.0426,0,0,-0.0433,-0.0486,-0.0484,-0.0486,-0.0469,-0.0441,-0.0424,-0.042,-0.0441,-0.0428,-0.0464,-0.045,-0.0484,-0.0487,-0.0497,-0.0559,-0.0643,-0.0568,-0.0572,-0.0634,-0.08,-0.071,-0.0718,-0.0674,-0.0677,-0.068,-0.0794,0,-0.0426,-0.0448,-0.046,-0.0434,-0.0437,-0.0423,-0.0405,-0.0398,-0.0413,-0.0442,-0.0481,-0.0507,-0.0492,-0.0519,-0.0577,-0.0625,-0.0688,-0.0611,-0.0756,-0.076,-0.07,-0.0735,-0.069,-0.0806,-0.0809,-0.0812,-0.0814,0,-0.043,-0.0453,-0.0464,-0.0445,-0.0441,-0.0418,-0.0421,-0.0394,-0.0441,-0.047,-0.0531,-0.0559,-0.0635,-0.0622,-0.0752,-0.0711,-0.076,-0.0799,-0.0805,-0.0734,-0.07,-0.079,-0.0842,-0.084,-0.0838,-0.0836,-0.0834,0,-0.0427,-0.0432,-0.0458,-0.0454,-0.0439,-0.0434,-0.0409,-0.0424,-0.0434,-0.0508,-0.0559,-0.0643,-0.071,-0.0784,-0.0843,-0.0818,-0.0992,-0.0964,-0.0932,-0.0926,-0.0968,-0.0957,-0.1077,-0.1076,-0.1076,-0.1076,-0.1075,0,-0.0407,-0.0391,-0.0475,-0.0478,-0.049,-0.0446,-0.0458,-0.046,-0.0499,-0.0543,-0.0587,-0.0673,-0.0764,-0.0857,-0.089,-0.0957,-0.1035,-0.0954,-0.0961,-0.0964,-0.0951,-0.0978,-0.0965,-0.108,-0.1079,-0.1078,-0.1078,0,-0.0324,-0.0393,-0.0426,-0.0482,-0.0491,-0.0487,-0.0481,-0.0497,-0.0531,-0.06,-0.063,-0.0739,-0.0848,-0.0912,-0.1048,-0.1023,-0.1085,-0.1092,-0.1089,-0.1091,-0.0955,-0.0941,-0.1063,-0.1061,-0.106,-0.1058,-0.1057,0,-0.0261,-0.0292,-0.0448,-0.0493,-0.0509,-0.0517,-0.0524,-0.053,-0.0535,-0.0644,-0.0672,-0.0813,-0.088,-0.1006,-0.1059,-0.1112,-0.11,-0.1114,-0.1027,-0.0965,-0.096,-0.0949,-0.0937,-0.1054,-0.1054,-0.1054,-0.1053,0,-0.0124,-0.0237,-0.0309,-0.0472,-0.0523,-0.0538,-0.0534,-0.0552,-0.0563,-0.0633,-0.0735,-0.0808,-0.093,-0.1,-0.1046,-0.1078,-0.1087,-0.1097,-0.1099,-0.1018,-0.0956,-0.095,-0.0941,-0.1047,-0.1048,-0.1049,-0.1049,0,-0.0056,-0.0112,-0.0296,-0.0432,-0.0499,-0.0524,-0.0534,-0.0548,-0.0564,-0.0654,-0.0717,-0.0854,-0.096,-0.0987,-0.1035,-0.1044,-0.1017,-0.0975,-0.0983,-0.099,-0.0904,-0.081,-0.0884,0,0,0,0,0,0.0022,-0.007,-0.0208,-0.0371,-0.0449,-0.0488,-0.0513,-0.0517,-0.0569,-0.063,-0.0655,-0.0761,-0.0857,-0.092,-0.0913,-0.0962,-0.0994,-0.0945,-0.0942,-0.1016,-0.1022,-0.0921,0,0,0,0,0,0,0.006,-0.004,-0.0201,-0.0306,-0.0382,-0.0422,-0.0453,-0.0494,-0.0493,-0.0577,-0.0633,-0.0708,-0.0799,-0.0867,-0.0905,-0.0914,-0.0893,-0.101,-0.1007,-0.1012,-0.1018,-0.1023,-0.0922,0,0,0,0,0]},{"header":{"parameterUnit":"m.s-1","parameterCategory":2,"la1":30.2991,"la2":30.254,"lo1":-89.0895,"lo2":-89.0444,"dy":0.0017,"dx":0.0017,"nx":28,"ny":28,"refTime":"2025-04-01T09:00:00:Z","depth":"4","parameterNumber":3,"parameterNumberName":"V-component_of_CURRENTS"},"data":[0,0,0,0,0,0,0,0,0,0,0,0,0,0,0,0,0,0,0,0,0,0,0,0,0,0,0,0,0,0,0,0,0,0,0,0,0,0,0,0,0,0,0,0,0,0,0,0,0,0,0,0,0,0,0,0,0,0,0.0188,0.0189,0,0.0281,0.0282,0.0284,0.0318,0.0317,0.0316,0.0316,0.0333,0.0334,0.0335,0,0,0,0,0,0,0,0,0,0,0,0,0,0.0163,0.0163,0.0188,0.0189,0.019,0.0281,0.0282,0.0284,0.0318,0.0317,0.0316,0.0315,0.0332,0.0334,0.0335,0,0,0,0,0,0,0,0,0,0,0,0,0,0.021,0.0163,0.0188,0.0215,0.0218,0.028,0.0282,0.0284,0.0318,0.0317,0.0316,0.0315,0.0332,0.0334,0.0335,0.0365,0,0,0.034,0.0341,0,0,0,0,0,0,0,0,0.0207,0.0211,0.021,0.0213,0.0217,0.0283,0.0279,0.0306,0.0318,0.0284,0.0316,0.0314,0.0307,0.0311,0.0337,0.0366,0.0367,0.034,0.0341,0.0342,0.0342,0,0,0,0,0,0,0,0.0203,0.0208,0.0229,0.0211,0.0215,0.0264,0.0268,0.0286,0.0302,0.0287,0.0289,0.0293,0.0309,0.0336,0.0338,0.0367,0.034,0.0342,0.0343,0.0343,0.0396,0.0397,0,0,0,0,0,0,0.0179,0.0204,0.0226,0.0231,0.0205,0.0264,0.027,0.0266,0.0303,0.0308,0.0294,0.0294,0.0333,0.0336,0.0338,0.0341,0.0342,0.0343,0.0344,0.0396,0.0396,0.0397,0,0,0,0,0,0,0.0178,0.018,0.0222,0.0218,0.0226,0.0264,0.0261,0.0268,0.0299,0.0309,0.0312,0.0316,0.0333,0.0336,0.0353,0.0342,0.0344,0.0346,0.0395,0.0396,0.0397,0.0367,0,0,0,0,0,0,0.0177,0.0179,0.0178,0.0215,0.0225,0.0265,0.0261,0.0271,0.0301,0.0303,0.0329,0.033,0.0332,0.0351,0.0355,0.0345,0.0347,0.0395,0.0396,0.0396,0.0368,0.0367,0.0366,0,0,0,0,0,0.0175,0.0181,0.0177,0.018,0.0218,0.0265,0.0276,0.0303,0.0303,0.0326,0.0333,0.0329,0.0358,0.0353,0.0357,0.0347,0.0394,0.0395,0.0396,0.0368,0.0367,0.0366,0,0,0,0,0,0,0.0184,0.0186,0.0182,0.0191,0.0224,0.0269,0.0292,0.031,0.0339,0.0331,0.0341,0.0343,0.0352,0.0363,0.0357,0.0367,0.0373,0.0375,0.035,0.035,0.0349,0.0331,0.0348,0,0,0,0,0,0.0179,0.0178,0.0197,0.0211,0.0219,0.0257,0.0281,0.0295,0.0321,0.0334,0.035,0.0359,0.0362,0.0366,0.0378,0.0391,0.0401,0.0387,0.0386,0.0385,0.0375,0.0401,0.0401,0.04,0.04,0.04,0,0,0.0183,0.0189,0.0187,0.0212,0.0237,0.0249,0.0271,0.0302,0.0305,0.0329,0.0344,0.036,0.0367,0.0374,0.0378,0.0379,0.039,0.0387,0.0385,0.0376,0.0402,0.0401,0.0401,0.0401,0.0401,0.0401,0,0,0.0195,0.0198,0.0195,0.0215,0.0241,0.0259,0.0265,0.0305,0.0314,0.0336,0.0339,0.0352,0.0377,0.0372,0.0371,0.0378,0.0387,0.0385,0.0362,0.0387,0.0387,0.0387,0.0393,0.0393,0.0382,0.0382,0.0382,0,0.0202,0.0188,0.021,0.0217,0.0223,0.0256,0.0255,0.0277,0.0318,0.0315,0.0332,0.0359,0.0369,0.0356,0.0356,0.0372,0.0388,0.0361,0.0384,0.0385,0.0385,0.0391,0.0392,0.038,0.0381,0.0381,0.0381,0,0.0202,0.0193,0.0202,0.02,0.0222,0.0231,0.0245,0.026,0.0273,0.0289,0.0297,0.0325,0.0337,0.0343,0.0349,0.0351,0.0361,0.0381,0.0382,0.0383,0.039,0.0392,0.0379,0.0379,0.0379,0.038,0,0,0.0205,0.0193,0.0195,0.0179,0.0201,0.0217,0.0213,0.0216,0.0202,0.0247,0.0242,0.026,0.0286,0.0288,0.0305,0.0325,0.0341,0.0353,0.0355,0.0349,0.0387,0.0364,0.0364,0.0372,0.0373,0.0373,0.0388,0,0.0191,0.0165,0.0177,0.0164,0.0144,0.0166,0.0162,0.0173,0.0183,0.0193,0.0217,0.0228,0.026,0.0267,0.0293,0.0333,0.0346,0.0334,0.0395,0.0396,0.0368,0.0365,0.0374,0.0389,0.0389,0.039,0.039,0,0.0182,0.0154,0.0115,0.0102,0.01,0.0103,0.0087,0.0101,0.0113,0.0125,0.0147,0.0173,0.0201,0.0237,0.0299,0.0295,0.0333,0.0366,0.0368,0.0355,0.0376,0.0391,0.0393,0.0393,0.0393,0.0392,0.0392,0,0.0146,0.0124,0.0076,0.0072,0.006,0.0049,0.0064,0.0071,0.0071,0.0091,0.009,0.0134,0.0161,0.0221,0.0288,0.03,0.0359,0.0385,0.0391,0.039,0.0419,0.0419,0.0419,0.0419,0.0419,0.0419,0.0419,0,0.0122,0.0099,0.0047,0.0024,-0.0027,0.001,-0.0011,-0.0003,0.0021,0.002,0.0063,0.0062,0.0163,0.0206,0.0272,0.0332,0.0348,0.0378,0.0392,0.0406,0.0405,0.042,0.042,0.042,0.042,0.0419,0.0419,0,0.0112,0.0075,0.001,-0.0039,-0.005,-0.0077,-0.0054,-0.0062,-0.0032,-0.0032,-0.0025,0.0021,0.0078,0.0156,0.0251,0.0303,0.0366,0.0379,0.0367,0.0383,0.0382,0.0381,0.0389,0.0388,0.0387,0.0387,0.0386,0,0.0095,0.0058,-0.0044,-0.0101,-0.0123,-0.0144,-0.0154,-0.0105,-0.0094,-0.0065,-0.0066,-0.0028,0.0006,0.0107,0.021,0.0316,0.0334,0.0365,0.0389,0.0366,0.0379,0.0379,0.0378,0.0385,0.0385,0.0385,0.0385,0,0.0064,0.0025,-0.0034,-0.0164,-0.0214,-0.0235,-0.0227,-0.0223,-0.0156,-0.0146,-0.0126,-0.0077,-0.0019,0.0083,0.016,0.0243,0.0351,0.036,0.0362,0.0384,0.0362,0.0376,0.0376,0.0383,0.0383,0.0383,0.0383,0,0.0035,-0.0018,-0.0113,-0.0226,-0.0285,-0.0306,-0.0292,-0.0265,-0.0239,-0.0186,-0.0184,-0.012,-0.0066,0.0043,0.012,0.0194,0.0222,0.0258,0.0266,0.0269,0.0238,0.0192,0.0164,0,0,0,0,0,0.0013,-0.0042,-0.0159,-0.0272,-0.0323,-0.035,-0.0334,-0.0298,-0.0242,-0.0245,-0.0206,-0.016,-0.0054,0.0,0.0066,0.0123,0.0245,0.0205,0.0292,0.0371,0.0374,0.0356,0,0,0,0,0,0,-0.0001,-0.0083,-0.0167,-0.0283,-0.0347,-0.0374,-0.0364,-0.033,-0.0304,-0.026,-0.0207,-0.0159,-0.0054,-0.0115,0.0053,0.0081,0.0145,0.0263,0.0265,0.037,0.0372,0.0374,0.0357,0,0,0,0,0]}]]